FW7554 Weather Reports


time (UTC)temp
F
wind
direction
speed
knots
gust
knots
rain 1hr
in
rain 24hr
in
rain mn
in
humidity
%
barometer
mb
20260507231334 54 21 3.5 5.2 0.00 0.00 0.00 58 1012.3
20260507230830 53 316 1.7 2.6 0.00 0.00 0.00 59 1012.4
20260507230327 53 336 1.7 2.6 0.00 0.00 0.00 58 1012.0
20260507225827 54 334 2.6 4.3 0.00 0.00 0.00 57 1012.1
20260507225323 54 312 0.9 1.7 0.00 0.00 0.00 57 1012.1
20260507224820 54 8 0.0 0.0 0.00 0.00 0.00 58 1012.0
20260507224317 55 322 1.7 2.6 0.00 0.00 0.00 55 1011.9
20260507223813 55 35 0.0 1.7 0.00 0.00 0.00 55 1011.9
20260507223309 55 328 0.9 1.7 0.00 0.00 0.00 53 1011.8
20260507222807 55 325 1.7 1.7 0.00 0.00 0.00 54 1011.9
20260507222305 55 324 1.7 1.7 0.00 0.00 0.00 53 1011.8
20260507221800 55 330 1.7 2.6 0.00 0.00 0.00 55 1011.7
20260507221256 55 338 4.3 7.0 0.00 0.00 0.00 53 1011.9
20260507220752 55 336 2.6 4.3 0.00 0.00 0.00 56 1011.6
20260507220251 55 344 1.7 5.2 0.00 0.00 0.00 56 1011.8
20260507215747 55 349 0.9 1.7 0.00 0.00 0.00 52 1011.7
20260507215244 55 334 1.7 4.3 0.00 0.00 0.00 56 1011.5
20260507214741 56 338 5.2 7.0 0.00 0.00 0.00 50 1011.6
20260507214238 56 333 1.7 2.6 0.00 0.00 0.00 50 1011.4
20260507213733 56 338 2.6 4.3 0.00 0.00 0.00 50 1011.4
20260507213231 56 304 0.9 1.7 0.00 0.00 0.00 48 1011.2
20260507212727 56 313 3.5 5.2 0.00 0.00 0.00 51 1011.5
20260507212224 56 331 0.9 2.6 0.00 0.00 0.00 50 1011.5
20260507211720 56 326 1.7 1.7 0.00 0.00 0.00 48 1011.5
20260507211216 56 316 0.9 1.7 0.00 0.00 0.00 49 1011.4
20260507210714 56 331 3.5 4.3 0.00 0.00 0.00 50 1011.3
20260507210211 57 348 1.7 2.6 0.00 0.00 0.00 47 1011.2
20260507205707 57 358 3.5 4.3 0.00 0.00 0.00 50 1011.1
20260507205204 57 331 4.3 7.8 0.00 0.00 0.00 45 1011.3
20260507204700 57 316 0.9 1.7 0.00 0.00 0.00 50 1011.6
20260507204158 58 326 2.6 2.6 0.00 0.00 0.00 48 1011.4
20260507203656 59 300 4.3 7.0 0.00 0.00 0.00 45 1011.2
20260507203153 58 330 1.7 4.3 0.00 0.00 0.00 44 1011.0
20260507202648 57 314 1.7 2.6 0.00 0.00 0.00 45 1011.3
20260507202144 57 347 2.6 4.3 0.00 0.00 0.00 49 1011.2
20260507201639 57 336 3.5 4.3 0.00 0.00 0.00 47 1011.5
20260507201137 58 8 0.9 1.7 0.00 0.00 0.00 46 1011.3
20260507200633 57 331 1.7 2.6 0.00 0.00 0.00 50 1011.4
20260507200129 57 308 1.7 2.6 0.00 0.00 0.00 46 1011.6
20260507195626 58 320 2.6 4.3 0.00 0.00 0.00 46 1011.6
20260507195123 58 332 2.6 4.3 0.00 0.00 0.00 46 1011.4
20260507194620 59 314 0.9 2.6 0.00 0.00 0.00 47 1011.5
20260507194115 61 356 2.6 5.2 0.00 0.00 0.00 47 1011.7
20260507193613 61 300 0.9 1.7 0.00 0.00 0.00 43 1011.6
20260507193110 60 322 7.0 7.8 0.00 0.00 0.00 44 1011.6
20260507192606 59 346 5.2 5.2 0.00 0.00 0.00 47 1011.6
20260507192103 59 306 1.7 2.6 0.00 0.00 0.00 46 1011.6
20260507191558 59 302 3.5 4.3 0.00 0.00 0.00 47 1011.7
20260507191055 57 347 2.6 4.3 0.00 0.00 0.00 50 1011.7
20260507190552 57 322 1.7 1.7 0.00 0.00 0.00 52 1011.6
20260507190051 57 328 1.7 1.7 0.00 0.00 0.00 48 1011.9
20260507185549 58 9 10.4 12.2 0.00 0.00 0.00 44 1011.7
20260507185045 59 344 1.7 2.6 0.00 0.00 0.00 44 1011.8
20260507184544 59 342 0.9 1.7 0.00 0.00 0.00 45 1011.8
20260507184041 58 316 5.2 9.6 0.00 0.00 0.00 49 1012.0
20260507183537 57 52 1.7 2.6 0.00 0.00 0.00 47 1011.9
20260507183034 57 348 0.0 0.0 0.00 0.00 0.00 49 1012.0
20260507182531 58 348 3.5 5.2 0.00 0.00 0.00 49 1012.0
20260507182026 60 293 3.5 4.3 0.00 0.00 0.00 48 1012.2
20260507181524 60 102 0.9 2.6 0.00 0.00 0.00 49 1011.9
20260507181020 60 326 2.6 4.3 0.00 0.00 0.00 47 1012.1
20260507180516 61 255 1.7 4.3 0.00 0.00 0.00 47 1011.9
20260507180013 62 188 9.6 12.2 0.00 0.00 0.00 48 1011.9
20260507175509 60 330 2.6 7.0 0.00 0.00 0.00 51 1012.1
20260507175007 58 249 1.7 2.6 0.00 0.00 0.00 57 1012.2
20260507174504 56 337 4.3 7.0 0.00 0.00 0.00 55 1012.2
20260507174002 57 348 0.9 1.7 0.00 0.00 0.00 57 1012.3
20260507173458 57 349 3.5 4.3 0.00 0.00 0.00 56 1012.2
20260507172955 58 189 1.7 2.6 0.00 0.00 0.00 54 1012.6
20260507172452 56 13 2.6 4.3 0.00 0.00 0.00 56 1012.6
20260507171949 55 303 1.7 2.6 0.00 0.00 0.00 60 1012.6
20260507171444 56 304 0.0 1.7 0.00 0.00 0.00 53 1012.4
20260507170942 56 237 1.7 2.6 0.00 0.00 0.00 53 1012.7
20260507170438 57 321 0.0 0.0 0.00 0.00 0.00 52 1012.6
20260507165935 59 260 3.5 5.2 0.00 0.00 0.00 57 1012.7
20260507165431 60 172 2.6 5.2 0.00 0.00 0.00 52 1012.7
20260507164926 59 317 0.9 1.7 0.00 0.00 0.00 53 1012.7
20260507164424 58 322 0.9 1.7 0.00 0.00 0.00 63 1012.6
20260507163920 55 356 0.9 2.6 0.00 0.00 0.00 58 1012.7
20260507163418 56 340 0.0 0.0 0.00 0.00 0.00 55 1013.2
20260507162915 57 332 1.7 2.6 0.00 0.00 0.00 57 1012.9
20260507162410 55 317 0.9 1.7 0.00 0.00 0.00 57 1012.9
20260507161908 57 253 4.3 5.2 0.00 0.00 0.00 58 1013.3
20260507161403 56 330 0.9 1.7 0.00 0.00 0.00 55 1012.8
20260507160901 55 340 0.9 1.7 0.00 0.00 0.00 57 1013.1
20260507160356 57 349 0.9 2.6 0.00 0.00 0.00 60 1013.3
20260507155852 56 347 1.7 2.6 0.00 0.00 0.00 64 1012.9
20260507155348 54 348 0.0 1.7 0.00 0.00 0.00 57 1013.2
20260507154845 55 350 0.9 1.7 0.00 0.00 0.00 61 1013.3
20260507154343 55 327 1.7 1.7 0.00 0.00 0.00 57 1013.3
20260507153840 55 312 2.6 2.6 0.00 0.00 0.00 59 1013.5
20260507153336 54 310 1.7 2.6 0.00 0.00 0.00 61 1013.4
20260507152833 56 169 3.5 5.2 0.00 0.00 0.00 63 1013.7
20260507152329 55 227 1.7 2.6 0.00 0.00 0.00 61 1013.5
20260507151825 56 308 1.7 2.6 0.00 0.00 0.00 58 1013.4
20260507151321 56 13 1.7 1.7 0.00 0.00 0.00 57 1013.5
20260507150818 54 331 0.9 1.7 0.00 0.00 0.00 55 1013.6
20260507150315 54 310 1.7 1.7 0.00 0.00 0.00 59 1013.8
20260507145811 53 309 0.9 1.7 0.00 0.00 0.00 65 1013.8
20260507145308 53 309 1.7 2.6 0.00 0.00 0.00 63 1014.0
20260507144805 55 32 0.9 1.7 0.00 0.00 0.00 62 1013.9
20260507144302 55 270 1.7 1.7 0.00 0.00 0.00 62 1014.0
20260507143758 54 317 2.6 4.3 0.00 0.00 0.00 64 1014.1
20260507143256 53 284 2.6 2.6 0.00 0.00 0.00 67 1014.1
20260507142752 53 343 0.9 1.7 0.00 0.00 0.00 64 1014.3
20260507142248 53 331 2.6 2.6 0.00 0.00 0.00 66 1014.3
20260507141745 53 342 0.9 1.7 0.00 0.00 0.00 65 1014.3
20260507141242 53 287 1.7 2.6 0.00 0.00 0.00 68 1014.4
20260507140738 53 280 3.5 4.3 0.00 0.00 0.00 65 1014.6
20260507140236 52 256 0.0 1.7 0.00 0.00 0.00 72 1014.3
20260507135733 52 330 0.0 1.7 0.00 0.00 0.00 69 1014.6
20260507135230 51 356 0.0 1.7 0.00 0.00 0.00 68 1014.5
20260507134726 51 322 0.9 1.7 0.00 0.00 0.00 72 1014.5
20260507134222 50 321 1.7 2.6 0.00 0.00 0.00 72 1014.7
20260507133719 50 134 2.6 4.3 0.00 0.00 0.00 72 1014.7
20260507133215 50 340 0.0 0.0 0.00 0.00 0.00 75 1014.6
20260507132713 50 302 1.7 1.7 0.00 0.00 0.00 72 1014.4
20260507132209 50 336 0.0 1.7 0.00 0.00 0.00 76 1014.5
20260507131706 50 329 0.9 1.7 0.00 0.00 0.00 77 1014.8
20260507131204 49 337 0.0 1.7 0.00 0.00 0.00 78 1014.7
20260507130700 48 138 1.7 2.6 0.00 0.00 0.00 79 1014.7
20260507130158 48 306 0.9 1.7 0.00 0.00 0.00 78 1014.6
20260507125657 47 338 0.0 0.0 0.00 0.00 0.00 80 1014.7
20260507125154 47 332 0.9 1.7 0.00 0.00 0.00 82 1014.7
20260507124650 47 334 0.9 1.7 0.00 0.00 0.00 83 1014.6
20260507124147 47 350 0.0 1.7 0.00 0.00 0.00 82 1014.8
20260507123646 47 203 0.9 1.7 0.00 0.00 0.00 83 1014.7
20260507123143 46 231 3.5 4.3 0.00 0.00 0.00 84 1014.7
20260507122638 46 200 2.6 4.3 0.00 0.00 0.00 87 1014.6
20260507122134 45 210 5.2 5.2 0.00 0.00 0.00 89 1014.4
20260507121630 44 333 0.0 1.7 0.00 0.00 0.00 90 1014.6
20260507121126 44 354 0.0 0.0 0.00 0.00 0.00 93 1014.7
20260507120622 42 356 0.0 0.0 0.00 0.00 0.00 96 1014.8
20260507120119 41 340 0.0 0.0 0.00 0.00 0.00 98 1014.6
20260507115615 40 336 0.0 0.0 0.00 0.00 0.00 99 1014.7
20260507115111 39 330 0.0 0.0 0.00 0.00 0.00 99 1014.7
20260507114607 39 296 1.7 1.7 0.00 0.00 0.00 99 1014.7
20260507114104 38 307 0.9 1.7 0.00 0.00 0.00 99 1014.4
20260507113602 38 60 1.7 1.7 0.00 0.00 0.00 99 1014.5
20260507113059 37 284 0.9 1.7 0.00 0.00 0.00 99 1014.6
20260507112557 37 61 0.9 1.7 0.00 0.00 0.00 98 1014.7
20260507112053 38 9 0.9 1.7 0.00 0.00 0.00 97 1014.6
20260507111550 38 11 0.0 0.0 0.00 0.00 0.00 98 1014.5
20260507111047 38 20 0.9 1.7 0.00 0.00 0.00 98 1014.6
20260507110543 37 358 0.0 0.0 0.00 0.00 0.00 99 1014.4
20260507110040 36 353 0.0 0.0 0.00 0.00 0.00 99 1014.3
20260507105537 36 0 0.0 0.0 0.00 0.00 0.00 99 1014.5
20260507105032 36 1 0.0 0.0 0.00 0.00 0.00 99 1014.3
20260507104530 36 2 0.0 0.0 0.00 0.00 0.00 99 1014.3
20260507104026 36 3 0.0 0.0 0.00 0.00 0.00 99 1014.2
20260507103523 35 351 0.0 0.0 0.00 0.00 0.00 99 1014.4
20260507103019 35 342 0.0 0.0 0.00 0.00 0.00 99 1014.3
20260507102516 34 346 0.0 0.0 0.00 0.00 0.00 99 1014.1
20260507102012 34 353 0.0 0.0 0.00 0.00 0.00 99 1014.1
20260507101508 34 354 0.0 0.0 0.00 0.00 0.00 99 1014.3
20260507101004 34 355 0.0 0.0 0.00 0.00 0.00 99 1014.3
20260507100456 34 354 0.0 0.0 0.00 0.00 0.00 99 1014.3
20260507095954 34 354 0.0 0.0 0.00 0.00 0.00 99 1014.1
20260507095451 34 354 0.0 0.0 0.00 0.00 0.00 99 1014.3
20260507094948 34 354 0.0 0.0 0.00 0.00 0.00 99 1014.3
20260507094444 34 354 0.0 0.0 0.00 0.00 0.00 99 1014.4
20260507093941 34 354 0.0 0.0 0.00 0.00 0.00 99 1014.2
20260507093439 34 355 0.0 0.0 0.00 0.00 0.00 99 1014.2
20260507092937 35 354 0.0 0.0 0.00 0.00 0.00 99 1014.1
20260507092433 35 354 0.0 0.0 0.00 0.00 0.00 99 1014.4
20260507091930 35 354 0.0 0.0 0.00 0.00 0.00 99 1014.3
20260507091426 35 354 0.0 0.0 0.00 0.00 0.00 99 1014.3
20260507090922 35 355 0.0 0.0 0.00 0.00 0.00 99 1014.3
20260507090419 35 355 0.0 0.0 0.00 0.00 0.00 99 1014.3
20260507085915 35 355 0.0 0.0 0.00 0.00 0.00 99 1014.2
20260507085412 35 346 0.0 0.0 0.00 0.00 0.00 99 1014.3
20260507084910 35 346 0.0 0.0 0.00 0.00 0.00 99 1014.2
20260507084406 36 346 0.0 0.0 0.00 0.00 0.00 99 1014.5
20260507083903 36 346 0.9 1.7 0.00 0.00 0.00 99 1014.7
20260507083359 36 346 0.0 0.0 0.00 0.00 0.00 99 1014.4
20260507082856 36 346 0.0 0.0 0.00 0.00 0.00 99 1014.4
20260507082351 36 346 0.0 0.0 0.00 0.00 0.00 99 1014.3
20260507081849 36 346 0.0 0.0 0.00 0.00 0.00 99 1014.3
20260507081345 36 346 0.0 0.0 0.00 0.00 0.00 99 1014.4
20260507080842 37 346 0.0 0.0 0.00 0.00 0.00 99 1014.4
20260507080338 37 346 0.0 0.0 0.00 0.00 0.00 99 1014.3
20260507075833 37 346 0.0 0.0 0.00 0.00 0.00 99 1014.5
20260507075330 37 346 0.0 0.0 0.00 0.00 0.00 99 1014.5
20260507074826 37 339 0.9 1.7 0.00 0.00 0.00 99 1014.5
20260507074324 37 336 0.9 1.7 0.00 0.00 0.00 99 1014.5
20260507073821 38 351 0.9 1.7 0.00 0.00 0.00 99 1014.6
20260507073318 38 351 0.0 0.0 0.00 0.00 0.00 98 1014.5
20260507072815 38 351 0.0 0.0 0.00 0.00 0.00 98 1014.5
20260507072312 38 351 0.0 0.0 0.00 0.00 0.00 98 1014.6
20260507071809 39 351 0.0 0.0 0.00 0.00 0.00 98 1014.6
20260507071306 39 351 0.0 0.0 0.00 0.00 0.00 97 1014.5
20260507070803 39 351 0.0 0.0 0.00 0.00 0.00 97 1014.7
20260507070300 39 350 0.0 0.0 0.00 0.00 0.00 96 1014.5
20260507065756 39 351 0.0 1.7 0.00 0.00 0.00 96 1014.8
20260507065253 40 350 0.0 0.0 0.00 0.00 0.00 95 1014.6
20260507064750 40 350 0.0 1.7 0.00 0.00 0.00 94 1014.8
20260507064249 41 350 0.0 0.0 0.00 0.00 0.00 93 1014.7
20260507063746 41 350 0.0 1.7 0.00 0.00 0.00 93 1014.6
20260507063243 41 350 0.9 1.7 0.00 0.00 0.00 92 1014.8
20260507062740 41 350 0.0 0.0 0.00 0.00 0.00 92 1014.8
20260507062237 41 350 0.0 0.0 0.00 0.00 0.00 92 1014.7
20260507061735 41 350 0.0 0.0 0.00 0.00 0.00 92 1015.0
20260507061233 42 350 0.0 0.0 0.00 0.00 0.00 92 1014.7
20260507060731 42 350 0.0 0.0 0.00 0.00 0.00 93 1014.9
20260507060227 42 350 0.0 0.0 0.00 0.00 0.00 92 1015.0
20260507055723 42 350 0.0 0.0 0.00 0.00 0.00 91 1014.9
20260507055219 43 350 0.0 0.0 0.00 0.00 0.00 88 1015.1
20260507054715 43 350 0.0 0.0 0.00 0.00 0.00 85 1014.8
20260507054212 43 350 0.0 0.0 0.00 0.00 0.00 85 1015.0
20260507053710 43 350 0.0 0.0 0.00 0.00 0.00 85 1015.0
20260507053208 43 350 0.0 0.0 0.00 0.00 0.00 85 1014.9
20260507052706 43 350 0.0 0.0 0.00 0.00 0.00 85 1015.0
20260507052202 43 350 0.0 0.0 0.00 0.00 0.00 84 1015.3
20260507051700 43 350 0.0 0.0 0.00 0.00 0.00 85 1015.5
20260507051156 44 350 0.0 0.0 0.00 0.00 0.00 85 1015.4
20260507050653 44 350 0.0 0.0 0.00 0.00 0.00 85 1015.3
20260507050150 44 350 0.0 0.0 0.00 0.00 0.00 83 1015.3
20260507045647 44 350 0.0 0.0 0.00 0.00 0.00 83 1015.3
20260507045143 44 350 0.0 1.7 0.00 0.00 0.00 84 1015.5
20260507044640 44 350 0.0 0.0 0.00 0.00 0.00 82 1015.5
20260507044137 44 350 0.0 0.0 0.00 0.00 0.00 81 1015.4
20260507043633 44 350 0.0 0.0 0.00 0.00 0.00 82 1015.7
20260507043130 44 350 0.0 0.0 0.00 0.00 0.00 81 1015.5
20260507042627 45 350 0.0 0.0 0.00 0.00 0.00 82 1015.5
20260507042121 45 350 0.9 1.7 0.00 0.00 0.00 82 1015.5
20260507041619 45 350 0.9 1.7 0.00 0.00 0.00 80 1015.4
20260507041115 45 350 0.0 0.0 0.00 0.00 0.00 81 1015.3
20260507040612 45 350 0.9 1.7 0.00 0.00 0.00 81 1015.5
20260507035559 45 351 0.9 1.7 0.00 0.53 0.53 79 1015.4
20260507035055 45 341 0.0 0.0 0.00 0.53 0.53 79 1015.5
20260507034552 45 341 0.0 0.0 0.00 0.53 0.53 80 1015.3
20260507034050 45 341 0.0 0.0 0.00 0.53 0.53 79 1015.2
20260507033548 45 354 0.0 1.7 0.00 0.53 0.53 79 1015.1
20260507033045 45 354 0.9 1.7 0.00 0.53 0.53 78 1015.2
20260507032542 45 1 0.9 1.7 0.00 0.53 0.53 79 1015.1
20260507032038 45 2 0.9 1.7 0.00 0.53 0.53 80 1015.2
20260507031535 45 2 0.0 0.0 0.00 0.53 0.53 81 1015.4
20260507031032 45 2 0.0 0.0 0.00 0.53 0.53 81 1015.3
20260507030528 45 2 0.0 0.0 0.00 0.53 0.53 81 1015.0
20260507030026 45 2 0.9 1.7 0.00 0.53 0.53 80 1015.1
20260507025523 45 2 0.0 0.0 0.00 0.53 0.53 82 1015.2
20260507025021 45 2 0.0 0.0 0.00 0.53 0.53 82 1015.1
20260507024518 44 2 0.0 0.0 0.00 0.53 0.53 82 1015.1
20260507024014 44 2 0.0 0.0 0.00 0.53 0.53 81 1015.0
20260507023510 44 2 0.0 0.0 0.00 0.53 0.53 83 1014.7
20260507023009 44 2 0.0 0.0 0.00 0.53 0.53 81 1014.8
20260507022505 44 2 0.0 0.0 0.00 0.53 0.53 81 1014.8
20260507022000 44 2 0.0 0.0 0.00 0.53 0.53 79 1014.8
20260507021455 44 2 0.0 0.0 0.00 0.53 0.53 77 1014.6
20260507020953 45 2 0.0 0.0 0.00 0.53 0.53 78 1014.6
20260507020450 45 2 0.0 0.0 0.00 0.53 0.53 77 1014.6
20260507015947 46 2 0.0 0.0 0.00 0.53 0.53 74 1014.7
20260507015445 46 2 0.0 1.7 0.00 0.53 0.53 71 1014.4
20260507014942 47 2 0.0 0.0 0.00 0.53 0.53 71 1014.3
20260507014439 47 2 0.0 0.0 0.00 0.53 0.53 72 1014.5
20260507013935 47 2 0.9 1.7 0.00 0.53 0.53 71 1014.3
20260507013432 47 2 0.9 1.7 0.00 0.53 0.53 72 1014.3
20260507012929 47 2 1.7 2.6 0.00 0.53 0.53 72 1014.3
20260507012425 48 3 1.7 2.6 0.00 0.53 0.53 70 1014.2
20260507011917 48 3 2.6 2.6 0.00 0.53 0.53 71 1014.1
20260507011414 48 2 2.6 2.6 0.00 0.53 0.53 69 1014.3
20260507010913 48 2 0.9 1.7 0.00 0.53 0.53 70 1014.3
20260507010409 48 357 1.7 2.6 0.00 0.53 0.53 70 1014.4
20260507005907 48 356 0.0 0.0 0.00 0.53 0.53 69 1014.5
20260507005403 48 342 0.0 1.7 0.00 0.53 0.53 67 1014.6
20260507004900 48 347 1.7 2.6 0.00 0.53 0.53 68 1014.4
20260507004357 48 357 0.0 1.7 0.00 0.53 0.53 69 1014.6
20260507003854 48 356 1.7 2.6 0.00 0.53 0.53 67 1014.3
20260507003349 48 38 2.6 4.3 0.00 0.53 0.53 65 1014.6
20260507002845 48 348 1.7 2.6 0.00 0.53 0.53 67 1014.5
20260507002341 49 356 0.9 1.7 0.00 0.53 0.53 69 1014.4
20260507001838 49 23 0.9 1.7 0.00 0.53 0.53 66 1014.2
20260507001335 49 345 1.7 2.6 0.00 0.53 0.53 67 1014.3
20260507000832 49 345 1.7 4.3 0.00 0.53 0.53 69 1014.5
20260507000328 49 348 3.5 5.2 0.00 0.53 0.53 69 1014.5
20260506235824 50 341 1.7 2.6 0.00 0.53 0.53 69 1014.6
20260506235320 50 334 1.7 2.6 0.00 0.53 0.53 68 1014.6
20260506234817 50 349 1.7 2.6 0.00 0.53 0.53 68 1014.5
20260506234315 50 350 0.9 1.7 0.00 0.53 0.53 68 1014.2
20260506233812 50 350 0.0 1.7 0.00 0.53 0.53 68 1014.1
20260506233307 50 343 2.6 4.3 0.00 0.53 0.53 67 1014.2
20260506232804 50 329 4.3 5.2 0.00 0.53 0.53 66 1014.0
20260506232259 50 345 4.3 5.2 0.00 0.53 0.53 66 1013.7
20260506231751 50 334 2.6 2.6 0.00 0.53 0.53 67 1014.0